Total_Precipitation_Accumulation
1.00 0.86 0.87 1.11 1.43 1.92 3.29 3.19 3.74 3.73 3.43 3.46 3.70 2.70 2.18 3.00 2.47 2.19 2.74 2.68 3.09 3.69 3.21 2.72 1.68 1.60 2.03 1.86 2.04 1.99 1.87 1.91 2.07 2.55 2.64 2.44 2.45 2.49 2.46 2.87 1.51 1.42 1.59
0.68 0.55 0.66 1.07 1.29 1.48 2.74 3.57 3.56 3.66 3.32 3.18 3.86 3.41 2.88 3.01 3.59 3.06 3.18 3.41 3.14 4.08 3.77 3.38 2.60 2.16 2.05 1.93 1.55 2.03 2.25 2.35 2.43 2.31 2.26 2.55 2.60 2.48 1.87 2.19 2.19 1.50 1.49
0.40 0.44 0.46 0.65 1.64 1.71 1.83 2.96 3.82 4.02 3.66 3.80 4.47 4.88 4.35 4.04 3.85 3.35 3.10 3.17 3.27 4.06 4.67 3.99 3.17 2.71 2.49 2.48 2.03 1.79 2.11 2.53 2.33 2.03 1.94 1.92 1.85 2.01 2.20 1.83 1.81 1.80 1.63
0.62 0.58 0.41 0.43 0.69 1.27 1.64 2.48 3.54 4.73 4.56 4.78 5.18 4.65 4.02 3.77 3.97 3.60 3.32 3.11 2.81 3.45 4.14 4.24 3.87 3.38 2.91 2.75 2.97 2.76 2.62 2.34 2.38 2.25 1.64 1.48 1.59 1.80 2.65 2.16 1.84 1.65 2.38
1.41 1.17 0.48 0.53 0.75 0.91 1.22 2.03 3.20 4.21 5.77 5.57 5.12 4.84 4.47 3.89 4.07 3.57 3.13 2.49 2.43 2.45 3.09 3.80 4.27 3.98 3.33 2.99 2.77 2.85 3.11 3.20 2.67 2.29 1.90 1.74 1.86 1.94 2.24 2.91 2.72 2.36 1.97
1.81 1.64 1.64 1.06 0.99 1.22 1.23 1.60 3.14 3.44 4.53 5.76 5.65 4.12 4.35 4.77 5.03 4.43 3.51 3.04 2.48 2.60 2.77 3.44 3.96 4.22 3.42 2.75 2.94 3.03 2.99 2.98 2.78 2.53 1.95 1.68 1.74 1.79 1.65 1.81 2.26 2.46 2.33
2.10 2.15 2.24 2.10 2.09 2.06 1.76 1.64 2.18 3.60 2.94 4.77 4.72 4.27 3.01 3.48 4.31 5.16 4.00 3.34 3.00 2.52 2.67 3.18 3.33 3.48 3.42 2.61 2.42 2.30 2.35 2.52 2.78 2.66 2.21 1.67 1.45 1.45 1.52 1.47 1.99 2.28 2.57
2.11 1.55 1.90 2.10 1.86 1.73 1.70 0.92 1.56 2.98 3.07 2.99 4.08 3.99 3.64 2.50 3.28 3.97 3.76 3.30 2.81 2.65 2.47 2.76 3.56 3.27 2.99 2.61 2.32 2.22 2.19 2.19 2.21 2.35 2.47 2.15 1.67 1.63 1.83 2.13 2.34 2.89 2.86
1.28 1.45 1.82 1.65 1.31 0.73 1.52 1.43 1.24 1.58 2.68 2.75 3.42 4.08 4.14 2.92 2.75 3.27 3.51 2.43 2.20 2.38 2.48 2.56 2.82 3.40 3.35 2.62 3.17 2.86 2.41 2.75 2.63 2.40 2.06 2.03 2.03 2.13 2.07 2.30 2.96 3.53 3.59
0.75 0.87 0.98 1.29 1.09 0.98 1.57 2.04 1.28 1.39 1.67 2.76 2.77 3.85 4.06 3.75 3.20 3.16 3.17 2.87 2.00 1.72 2.04 2.29 2.53 2.67 2.75 2.62 2.68 3.12 3.07 2.53 2.67 2.61 2.54 2.29 1.98 1.96 2.31 2.42 2.47 2.97 3.29
0.30 0.24 0.16 0.16 0.44 0.77 1.20 1.60 1.67 1.37 1.56 1.93 2.90 3.70 5.12 3.67 4.55 4.05 3.05 2.83 2.27 1.63 1.58 1.59 2.05 2.34 2.24 2.04 2.34 2.40 2.65 3.15 2.83 2.45 2.34 2.24 2.04 2.20 2.14 2.39 2.61 3.00 3.42
0.16 0.18 0.10 0.05 0.20 0.46 0.72 1.48 2.32 1.55 2.02 2.15 2.92 3.12 3.87 4.67 4.50 5.42 4.43 3.28 2.79 1.85 1.54 1.52 1.65 1.91 1.78 1.91 2.29 2.23 2.34 2.42 2.48 2.58 2.46 2.31 2.47 2.61 2.44 2.50 2.74 2.69 2.69
0.28 0.17 0.07 0.08 0.10 0.20 0.42 0.83 1.52 1.38 1.65 1.69 2.17 2.73 2.74 3.57 4.23 5.39 5.98 4.92 4.10 3.02 1.99 1.97 1.70 1.70 1.56 1.48 1.65 1.72 1.80 2.03 2.16 2.22 2.15 2.12 2.19 2.39 2.23 2.17 2.14 2.36 2.49
0.65 0.53 0.36 0.26 0.37 0.54 0.51 0.41 0.79 1.12 1.20 1.21 1.56 2.23 2.68 2.51 3.25 3.65 4.35 4.10 4.22 4.09 3.14 1.94 1.79 1.73 1.53 1.57 1.63 1.57 1.60 1.70 1.66 1.92 2.12 2.05 2.06 2.12 2.20 2.36 2.32 2.39 2.77
1.07 0.79 0.64 0.48 0.51 0.77 0.93 0.76 0.70 0.65 1.03 1.06 1.06 1.23 2.14 1.90 2.05 2.95 3.00 3.68 3.28 3.62 3.58 2.72 1.76 1.74 1.84 1.71 1.84 1.66 1.79 2.00 2.08 1.95 1.98 2.00 2.11 2.09 1.98 1.96 1.86 1.82 2.03
1.44 0.97 0.73 0.52 0.54 0.69 0.88 1.00 0.94 0.69 0.69 0.87 0.73 1.08 1.67 1.73 1.74 2.00 2.56 2.86 3.41 3.71 4.11 4.18 3.26 2.08 1.84 2.21 2.26 1.78 1.76 2.15 2.05 1.95 1.86 1.74 2.12 2.01 2.02 2.15 2.11 2.13 2.15
1.86 1.40 0.94 0.78 0.66 0.55 0.64 1.07 0.97 0.82 0.78 0.94 0.93 0.89 1.22 1.31 1.36 1.69 1.82 2.50 3.05 3.02 3.23 3.92 4.52 4.08 3.20 2.77 2.12 2.10 1.39 1.68 1.97 1.83 1.63 1.52 1.51 1.84 1.55 1.60 1.65 1.78 2.07
2.20 1.74 1.37 1.11 0.67 0.56 0.58 1.01 1.17 0.93 1.11 0.96 1.12 1.23 1.20 1.22 1.24 1.67 1.76 1.65 2.20 2.70 2.78 2.89 3.63 3.58 3.21 3.02 2.17 1.74 1.42 1.47 1.50 1.44 1.31 1.34 1.25 1.50 1.68 1.64 1.77 1.53 1.29
2.56 2.27 2.21 1.53 1.03 0.84 0.87 1.07 1.15 0.98 0.82 1.06 1.25 1.09 1.16 1.17 1.22 1.88 2.12 2.04 2.45 2.90 2.90 2.53 2.48 2.59 2.61 2.42 2.23 1.70 1.18 1.09 1.17 1.18 1.23 1.33 1.40 1.63 1.96 2.11 2.01 1.74 1.43
2.68 3.09 2.40 1.50 1.09 0.96 1.08 1.18 1.08 0.97 0.91 1.03 1.10 1.24 1.39 1.55 1.51 1.92 2.25 1.89 1.77 1.96 2.34 2.39 2.05 2.08 1.90 1.82 1.78 1.79 1.23 1.15 1.10 0.94 1.21 1.48 1.30 1.81 2.28 2.12 1.90 1.83 1.39
2.66 2.94 2.16 1.63 1.27 1.54 1.71 1.75 1.62 1.51 1.45 1.44 1.80 1.66 1.81 1.94 1.71 1.61 1.90 1.86 1.68 1.55 1.82 2.04 2.03 1.96 1.77 1.68 1.49 1.36 0.94 0.87 0.84 0.86 0.83 0.90 1.02 1.32 1.38 1.62 1.57 1.48 1.43
2.95 3.60 2.93 2.40 2.59 2.80 2.41 2.37 2.51 2.54 1.99 1.57 1.46 1.52 1.53 1.40 1.40 1.41 1.44 1.55 1.72 1.66 1.65 1.75 1.97 1.90 1.79 1.99 1.84 1.44 1.07 1.03 0.96 0.71 0.48 0.56 0.88 0.75 0.79 1.15 1.39 1.48 1.53
2.75 3.77 3.84 3.37 2.58 2.45 2.40 2.65 2.42 2.33 2.16 1.96 1.50 1.37 1.41 1.39 1.27 1.48 1.66 1.72 1.73 1.79 1.64 1.46 1.48 1.46 1.45 1.68 2.05 1.91 1.41 1.20 1.23 1.01 1.00 0.94 0.74 0.65 0.68 0.82 1.09 1.46 1.39
2.32 3.52 3.28 2.92 2.43 2.41 2.70 2.49 2.53 2.11 2.09 2.30 2.30 1.75 1.65 1.96 1.80 1.77 1.84 1.85 1.67 1.52 1.52 1.37 1.33 1.26 1.26 1.28 1.46 1.66 1.75 1.51 1.30 1.60 1.65 1.40 1.25 1.20 1.10 1.25 1.24 1.24 1.21
1.73 2.91 3.44 3.45 2.90 2.93 3.28 2.90 2.69 2.47 2.26 2.08 2.45 2.29 1.92 1.87 1.86 1.82 1.82 1.84 1.70 1.39 1.52 1.49 1.44 1.52 1.50 1.17 1.33 1.55 1.52 1.72 1.72 1.63 1.75 1.69 1.80 1.91 1.87 1.61 1.36 1.29 1.21
1.43 2.10 3.04 3.41 3.42 3.45 3.43 3.10 3.04 2.97 2.30 1.96 1.75 2.15 2.00 1.74 1.60 1.64 1.93 2.00 2.06 2.01 1.95 1.81 1.83 1.72 1.81 1.93 2.06 2.20 2.08 2.25 2.39 2.51 2.15 1.56 1.22 1.26 1.33 1.39 1.29 1.28 1.23